Time,TemperatureF,DewpointF,PressureIn,WindDirection,WindDirectionDegrees,WindSpeedMPH,WindSpeedGustMPH,Humidity,HourlyPrecipIn,Conditions,Clouds,dailyrainin,SoftwareType,DateUTC
2013-06-06 00:00:00,61.1,51.6,29.84,SSW,192,5.0,14.0,71,0.00,,,0.00,Wunderground v.1.15,2013-06-06 07:00:00,
2013-06-06 00:05:00,60.9,51.4,29.84,SSW,205,4.0,14.0,71,0.00,,,0.00,Wunderground v.1.15,2013-06-06 07:05:00,
2013-06-06 00:10:00,60.6,51.5,29.84,South,173,9.0,11.0,72,0.00,,,0.00,Wunderground v.1.15,2013-06-06 07:10:00,
2013-06-06 00:15:00,60.3,51.2,29.84,SSW,198,7.0,13.0,72,0.00,,,0.00,Wunderground v.1.15,2013-06-06 07:15:00,
2013-06-06 00:20:00,59.9,50.8,29.84,South,178,3.0,15.0,72,0.00,,,0.00,Wunderground v.1.15,2013-06-06 07:20:00,
2013-06-06 00:25:00,59.3,50.6,29.84,SSE,165,3.0,19.0,73,0.00,,,0.00,Wunderground v.1.15,2013-06-06 07:25:00,
2013-06-06 00:30:00,58.8,50.5,29.84,South,171,10.0,14.0,74,0.00,,,0.00,Wunderground v.1.15,2013-06-06 07:30:00,
2013-06-06 00:35:00,58.3,50.4,29.84,South,173,8.0,18.0,75,0.00,,,0.00,Wunderground v.1.15,2013-06-06 07:35:00,
2013-06-06 00:40:00,57.8,50.3,29.84,SSW,202,4.0,10.0,76,0.00,,,0.00,Wunderground v.1.15,2013-06-06 07:40:00,
2013-06-06 00:45:00,57.4,50.2,29.84,South,187,4.0,17.0,77,0.00,,,0.00,Wunderground v.1.15,2013-06-06 07:45:00,
2013-06-06 00:50:00,57.1,50.3,29.84,South,182,8.0,17.0,78,0.00,,,0.00,Wunderground v.1.15,2013-06-06 07:50:00,
2013-06-06 00:55:00,57.0,50.2,29.84,SSW,208,6.0,17.0,78,0.00,,,0.00,Wunderground v.1.15,2013-06-06 07:55:00,
2013-06-06 01:00:00,57.0,50.2,29.84,South,186,15.0,15.0,78,0.00,,,0.00,Wunderground v.1.15,2013-06-06 08:00:00,
2013-06-06 01:05:00,56.9,50.1,29.84,South,188,9.0,17.0,78,0.00,,,0.00,Wunderground v.1.15,2013-06-06 08:05:00,
2013-06-06 01:10:00,56.7,50.3,29.84,SSW,205,11.0,14.0,79,0.00,,,0.00,Wunderground v.1.15,2013-06-06 08:10:00,
2013-06-06 01:15:00,56.7,50.3,29.84,SSE,167,6.0,14.0,79,0.00,,,0.00,Wunderground v.1.15,2013-06-06 08:15:00,
2013-06-06 01:20:00,56.7,50.3,29.84,SSW,199,7.0,10.0,79,0.00,,,0.00,Wunderground v.1.15,2013-06-06 08:20:00,
2013-06-06 01:25:00,56.7,50.3,29.84,South,186,5.0,12.0,79,0.00,,,0.00,Wunderground v.1.15,2013-06-06 08:25:00,
2013-06-06 01:30:00,56.7,50.3,29.84,SSW,208,7.0,11.0,79,0.00,,,0.00,Wunderground v.1.15,2013-06-06 08:30:00,
2013-06-06 01:35:00,56.6,50.5,29.84,South,186,4.0,13.0,80,0.00,,,0.00,Wunderground v.1.15,2013-06-06 08:35:00,
2013-06-06 01:40:00,56.6,50.5,29.84,South,184,10.0,11.0,80,0.00,,,0.00,Wunderground v.1.15,2013-06-06 08:40:00,
2013-06-06 01:45:00,56.6,50.5,29.85,SSW,197,7.0,13.0,80,0.00,,,0.00,Wunderground v.1.15,2013-06-06 08:45:00,
2013-06-06 01:50:00,56.5,50.4,29.85,SSW,209,8.0,13.0,80,0.00,,,0.00,Wunderground v.1.15,2013-06-06 08:50:00,
2013-06-06 01:55:00,56.5,50.4,29.85,South,190,7.0,13.0,80,0.00,,,0.00,Wunderground v.1.15,2013-06-06 08:55:00,
2013-06-06 02:00:00,56.5,50.4,29.85,SSW,205,4.0,10.0,80,0.00,,,0.00,Wunderground v.1.15,2013-06-06 09:00:00,
2013-06-06 02:05:00,56.5,50.4,29.85,SSW,209,7.0,10.0,80,0.00,,,0.00,Wunderground v.1.15,2013-06-06 09:05:00,
2013-06-06 02:10:00,56.6,50.5,29.85,SSW,196,7.0,8.0,80,0.00,,,0.00,Wunderground v.1.15,2013-06-06 09:10:00,
2013-06-06 02:15:00,56.7,50.9,29.85,SSW,208,3.0,8.0,81,0.00,,,0.00,Wunderground v.1.15,2013-06-06 09:15:00,
2013-06-06 02:20:00,56.9,51.1,29.85,South,186,4.0,6.0,81,0.00,,,0.00,Wunderground v.1.15,2013-06-06 09:20:00,
2013-06-06 02:25:00,57.0,50.9,29.85,South,184,3.0,8.0,80,0.00,,,0.00,Wunderground v.1.15,2013-06-06 09:25:00,
2013-06-06 02:30:00,57.1,51.0,29.85,South,180,2.0,5.0,80,0.00,,,0.00,Wunderground v.1.15,2013-06-06 09:30:00,
2013-06-06 02:35:00,57.1,51.0,29.85,SSW,194,4.0,8.0,80,0.00,,,0.00,Wunderground v.1.15,2013-06-06 09:35:00,
2013-06-06 02:40:00,57.0,50.5,29.85,SSW,208,6.0,9.0,79,0.00,,,0.00,Wunderground v.1.15,2013-06-06 09:40:00,
2013-06-06 02:45:00,56.9,50.8,29.85,SSW,211,3.0,11.0,80,0.00,,,0.00,Wunderground v.1.15,2013-06-06 09:45:00,
2013-06-06 02:50:00,56.7,50.6,29.85,South,187,7.0,7.0,80,0.00,,,0.00,Wunderground v.1.15,2013-06-06 09:50:00,
2013-06-06 02:55:00,56.6,50.5,29.85,SW,215,4.0,11.0,80,0.00,,,0.00,Wunderground v.1.15,2013-06-06 09:55:00,
2013-06-06 03:00:00,56.6,50.5,29.85,SSW,207,5.0,9.0,80,0.00,,,0.00,Wunderground v.1.15,2013-06-06 10:00:00,
2013-06-06 03:05:00,56.5,50.4,29.85,SSW,205,6.0,9.0,80,0.00,,,0.00,Wunderground v.1.15,2013-06-06 10:05:00,
2013-06-06 03:10:00,56.3,50.2,29.85,SSW,205,3.0,10.0,80,0.00,,,0.00,Wunderground v.1.15,2013-06-06 10:10:00,
2013-06-06 03:15:00,56.2,50.1,29.85,South,186,3.0,12.0,80,0.00,,,0.00,Wunderground v.1.15,2013-06-06 10:15:00,
2013-06-06 03:20:00,56.0,50.3,29.85,South,182,9.0,9.0,81,0.00,,,0.00,Wunderground v.1.15,2013-06-06 10:20:00,
2013-06-06 03:25:00,55.9,50.2,29.85,SSW,204,5.0,9.0,81,0.00,,,0.00,Wunderground v.1.15,2013-06-06 10:25:00,
2013-06-06 03:30:00,55.9,50.5,29.86,SSW,209,5.0,10.0,82,0.00,,,0.00,Wunderground v.1.15,2013-06-06 10:30:00,
2013-06-06 03:35:00,55.8,50.4,29.85,SSW,198,7.0,10.0,82,0.00,,,0.00,Wunderground v.1.15,2013-06-06 10:35:00,
2013-06-06 03:40:00,55.7,50.3,29.85,South,188,2.0,9.0,82,0.00,,,0.00,Wunderground v.1.15,2013-06-06 10:40:00,
2013-06-06 03:45:00,55.5,50.1,29.86,South,186,5.0,10.0,82,0.00,,,0.00,Wunderground v.1.15,2013-06-06 10:45:00,
2013-06-06 03:50:00,55.4,50.0,29.86,SSW,196,2.0,5.0,82,0.00,,,0.00,Wunderground v.1.15,2013-06-06 10:50:00,
2013-06-06 03:55:00,55.3,49.9,29.86,SSW,204,6.0,9.0,82,0.00,,,0.00,Wunderground v.1.15,2013-06-06 10:55:00,
2013-06-06 04:00:00,55.2,50.1,29.86,South,189,4.0,5.0,83,0.00,,,0.00,Wunderground v.1.15,2013-06-06 11:00:00,
2013-06-06 04:05:00,55.2,50.1,29.86,SSW,194,3.0,8.0,83,0.00,,,0.00,Wunderground v.1.15,2013-06-06 11:05:00,
2013-06-06 04:10:00,55.1,50.0,29.86,SSW,192,5.0,7.0,83,0.00,,,0.00,Wunderground v.1.15,2013-06-06 11:10:00,
2013-06-06 04:15:00,55.1,50.0,29.86,South,188,3.0,7.0,83,0.00,,,0.00,Wunderground v.1.15,2013-06-06 11:15:00,
2013-06-06 04:20:00,55.1,50.0,29.86,South,187,5.0,6.0,83,0.00,,,0.00,Wunderground v.1.15,2013-06-06 11:20:00,
2013-06-06 04:25:00,55.0,49.9,29.86,South,190,2.0,7.0,83,0.00,,,0.00,Wunderground v.1.15,2013-06-06 11:25:00,
2013-06-06 04:30:00,55.0,50.3,29.86,South,189,4.0,4.0,84,0.00,,,0.00,Wunderground v.1.15,2013-06-06 11:30:00,
2013-06-06 04:35:00,54.9,50.2,29.87,South,188,4.0,8.0,84,0.00,,,0.00,Wunderground v.1.15,2013-06-06 11:35:00,
2013-06-06 04:40:00,54.8,50.1,29.87,South,178,5.0,5.0,84,0.00,,,0.00,Wunderground v.1.15,2013-06-06 11:40:00,
2013-06-06 04:45:00,54.7,50.0,29.87,South,180,2.0,6.0,84,0.00,,,0.00,Wunderground v.1.15,2013-06-06 11:45:00,
2013-06-06 04:50:00,54.6,49.9,29.87,South,184,3.0,6.0,84,0.00,,,0.00,Wunderground v.1.15,2013-06-06 11:50:00,
2013-06-06 04:55:00,54.6,50.2,29.87,South,184,4.0,6.0,85,0.00,,,0.00,Wunderground v.1.15,2013-06-06 11:55:00,
2013-06-06 05:00:00,54.6,50.2,29.87,South,184,2.0,3.0,85,0.00,,,0.00,Wunderground v.1.15,2013-06-06 12:00:00,
2013-06-06 05:05:00,54.6,50.2,29.88,South,184,2.0,5.0,85,0.00,,,0.00,Wunderground v.1.15,2013-06-06 12:05:00,
2013-06-06 05:10:00,54.6,50.2,29.88,South,184,2.0,4.0,85,0.00,,,0.00,Wunderground v.1.15,2013-06-06 12:10:00,
2013-06-06 05:15:00,54.7,50.3,29.88,South,186,0.0,6.0,85,0.00,,,0.00,Wunderground v.1.15,2013-06-06 12:15:00,
2013-06-06 05:20:00,54.6,50.2,29.88,South,186,0.0,3.0,85,0.00,,,0.00,Wunderground v.1.15,2013-06-06 12:20:00,
2013-06-06 05:25:00,54.6,50.2,29.88,South,186,2.0,5.0,85,0.00,,,0.00,Wunderground v.1.15,2013-06-06 12:25:00,
2013-06-06 05:30:00,54.6,50.2,29.88,SSW,193,3.0,7.0,85,0.00,,,0.00,Wunderground v.1.15,2013-06-06 12:30:00,
2013-06-06 05:35:00,54.5,50.1,29.88,South,187,6.0,7.0,85,0.00,,,0.00,Wunderground v.1.15,2013-06-06 12:35:00,
2013-06-06 05:40:00,54.4,50.0,29.89,South,187,5.0,6.0,85,0.00,,,0.00,Wunderground v.1.15,2013-06-06 12:40:00,
2013-06-06 05:45:00,54.4,50.0,29.89,SSW,192,4.0,7.0,85,0.00,,,0.00,Wunderground v.1.15,2013-06-06 12:45:00,
2013-06-06 05:50:00,54.4,50.3,29.89,SSW,207,2.0,4.0,86,0.00,,,0.00,Wunderground v.1.15,2013-06-06 12:50:00,
2013-06-06 05:55:00,54.3,50.2,29.89,SSW,205,4.0,6.0,86,0.00,,,0.00,Wunderground v.1.15,2013-06-06 12:55:00,
2013-06-06 06:00:00,54.3,50.2,29.89,SSW,202,3.0,7.0,86,0.00,,,0.00,Wunderground v.1.15,2013-06-06 13:00:00,
2013-06-06 06:05:00,54.3,50.2,29.89,SSW,198,4.0,7.0,86,0.00,,,0.00,Wunderground v.1.15,2013-06-06 13:05:00,
2013-06-06 06:10:00,54.3,50.2,29.89,SSW,197,3.0,4.0,86,0.00,,,0.00,Wunderground v.1.15,2013-06-06 13:10:00,
2013-06-06 06:15:00,54.3,50.2,29.89,SSW,194,4.0,6.0,86,0.00,,,0.00,Wunderground v.1.15,2013-06-06 13:15:00,
2013-06-06 06:20:00,54.4,50.3,29.89,SSW,197,3.0,6.0,86,0.00,,,0.00,Wunderground v.1.15,2013-06-06 13:20:00,
2013-06-06 06:25:00,54.4,50.3,29.89,SSW,197,1.0,7.0,86,0.00,,,0.00,Wunderground v.1.15,2013-06-06 13:25:00,
2013-06-06 06:30:00,54.4,50.3,29.89,South,188,5.0,6.0,86,0.00,,,0.00,Wunderground v.1.15,2013-06-06 13:30:00,
2013-06-06 06:35:00,54.4,50.3,29.89,South,190,4.0,8.0,86,0.00,,,0.00,Wunderground v.1.15,2013-06-06 13:35:00,
2013-06-06 06:40:00,54.4,50.3,29.89,SSW,196,3.0,4.0,86,0.00,,,0.00,Wunderground v.1.15,2013-06-06 13:40:00,
2013-06-06 06:45:00,54.5,50.4,29.89,SSW,194,3.0,7.0,86,0.00,,,0.00,Wunderground v.1.15,2013-06-06 13:45:00,
2013-06-06 06:50:00,54.6,50.2,29.89,SSW,206,4.0,7.0,85,0.00,,,0.00,Wunderground v.1.15,2013-06-06 13:50:00,
2013-06-06 06:55:00,54.7,50.3,29.89,South,170,5.0,10.0,85,0.00,,,0.00,Wunderground v.1.15,2013-06-06 13:55:00,
2013-06-06 07:00:00,54.9,50.5,29.89,South,182,3.0,5.0,85,0.00,,,0.00,Wunderground v.1.15,2013-06-06 14:00:00,
2013-06-06 07:05:00,55.1,50.7,29.89,SSW,200,4.0,7.0,85,0.00,,,0.00,Wunderground v.1.15,2013-06-06 14:05:00,
2013-06-06 07:10:00,55.3,50.5,29.89,SSW,210,5.0,8.0,84,0.00,,,0.00,Wunderground v.1.15,2013-06-06 14:10:00,
2013-06-06 07:15:00,55.5,50.7,29.89,South,188,3.0,8.0,84,0.00,,,0.00,Wunderground v.1.15,2013-06-06 14:15:00,
2013-06-06 07:20:00,55.8,51.0,29.90,South,186,5.0,6.0,84,0.00,,,0.00,Wunderground v.1.15,2013-06-06 14:20:00,
2013-06-06 07:25:00,56.2,51.1,29.90,SSW,204,6.0,7.0,83,0.00,,,0.00,Wunderground v.1.15,2013-06-06 14:25:00,
2013-06-06 07:30:00,56.5,51.4,29.90,SSW,192,2.0,4.0,83,0.00,,,0.00,Wunderground v.1.15,2013-06-06 14:30:00,
2013-06-06 07:35:00,56.9,51.5,29.90,South,188,4.0,8.0,82,0.00,,,0.00,Wunderground v.1.15,2013-06-06 14:35:00,
2013-06-06 07:40:00,57.2,51.4,29.90,SSW,200,4.0,5.0,81,0.00,,,0.00,Wunderground v.1.15,2013-06-06 14:40:00,
2013-06-06 07:45:00,57.5,51.7,29.90,South,185,6.0,8.0,81,0.00,,,0.00,Wunderground v.1.15,2013-06-06 14:45:00,
2013-06-06 07:50:00,58.0,51.9,29.90,South,180,3.0,4.0,80,0.00,,,0.00,Wunderground v.1.15,2013-06-06 14:50:00,
2013-06-06 07:55:00,58.4,51.9,29.90,South,178,5.0,6.0,79,0.00,,,0.00,Wunderground v.1.15,2013-06-06 14:55:00,
2013-06-06 08:00:00,58.8,52.0,29.90,SW,221,2.0,4.0,78,0.00,,,0.00,Wunderground v.1.15,2013-06-06 15:00:00,
2013-06-06 08:05:00,59.2,52.3,29.90,SW,218,3.0,5.0,78,0.00,,,0.00,Wunderground v.1.15,2013-06-06 15:05:00,
2013-06-06 08:10:00,59.6,52.4,29.90,South,188,3.0,3.0,77,0.00,,,0.00,Wunderground v.1.15,2013-06-06 15:10:00,
2013-06-06 08:15:00,60.1,52.5,29.90,South,183,4.0,9.0,76,0.00,,,0.00,Wunderground v.1.15,2013-06-06 15:15:00,
2013-06-06 08:20:00,60.5,52.5,29.90,SSW,202,3.0,4.0,75,0.00,,,0.00,Wunderground v.1.15,2013-06-06 15:20:00,
2013-06-06 08:25:00,60.9,52.9,29.90,SSW,207,6.0,7.0,75,0.00,,,0.00,Wunderground v.1.15,2013-06-06 15:25:00,
2013-06-06 08:30:00,61.2,52.8,29.90,SSW,200,3.0,5.0,74,0.00,,,0.00,Wunderground v.1.15,2013-06-06 15:30:00,
2013-06-06 08:35:00,61.4,52.7,29.90,South,178,5.0,10.0,73,0.00,,,0.00,Wunderground v.1.15,2013-06-06 15:35:00,
2013-06-06 08:40:00,61.6,52.9,29.90,SSW,201,7.0,7.0,73,0.00,,,0.00,Wunderground v.1.15,2013-06-06 15:40:00,
2013-06-06 08:45:00,61.8,52.7,29.90,South,180,4.0,11.0,72,0.00,,,0.00,Wunderground v.1.15,2013-06-06 15:45:00,
2013-06-06 08:50:00,61.9,52.8,29.90,SW,219,7.0,8.0,72,0.00,,,0.00,Wunderground v.1.15,2013-06-06 15:50:00,
2013-06-06 08:55:00,62.0,52.9,29.90,South,189,5.0,8.0,72,0.00,,,0.00,Wunderground v.1.15,2013-06-06 15:55:00,
2013-06-06 09:00:00,62.2,53.1,29.90,SSW,201,7.0,7.0,72,0.00,,,0.00,Wunderground v.1.15,2013-06-06 16:00:00,
2013-06-06 09:05:00,62.5,53.0,29.90,SSW,192,4.0,10.0,71,0.00,,,0.00,Wunderground v.1.15,2013-06-06 16:05:00,
2013-06-06 09:10:00,63.1,53.5,29.90,South,181,3.0,5.0,71,0.00,,,0.00,Wunderground v.1.15,2013-06-06 16:10:00,
2013-06-06 09:15:00,63.6,53.6,29.90,SSW,202,5.0,7.0,70,0.00,,,0.00,Wunderground v.1.15,2013-06-06 16:15:00,
2013-06-06 09:20:00,64.2,53.8,29.90,South,184,2.0,5.0,69,0.00,,,0.00,Wunderground v.1.15,2013-06-06 16:20:00,
2013-06-06 09:25:00,64.5,53.7,29.90,South,191,4.0,10.0,68,0.00,,,0.00,Wunderground v.1.15,2013-06-06 16:25:00,
2013-06-06 09:30:00,64.9,54.1,29.90,South,191,4.0,5.0,68,0.00,,,0.00,Wunderground v.1.15,2013-06-06 16:30:00,
2013-06-06 09:35:00,65.3,54.1,29.90,South,189,8.0,10.0,67,0.00,,,0.00,Wunderground v.1.15,2013-06-06 16:35:00,
2013-06-06 09:40:00,65.5,53.8,29.90,SSW,196,5.0,5.0,66,0.00,,,0.00,Wunderground v.1.15,2013-06-06 16:40:00,
2013-06-06 09:45:00,65.8,54.1,29.90,South,184,7.0,11.0,66,0.00,,,0.00,Wunderground v.1.15,2013-06-06 16:45:00,
2013-06-06 09:50:00,66.1,54.0,29.90,SSW,196,5.0,6.0,65,0.00,,,0.00,Wunderground v.1.15,2013-06-06 16:50:00,
2013-06-06 09:55:00,66.4,54.3,29.90,SSW,213,6.0,8.0,65,0.00,,,0.00,Wunderground v.1.15,2013-06-06 16:55:00,
2013-06-06 10:00:00,66.6,54.5,29.90,South,188,6.0,7.0,65,0.00,,,0.00,Wunderground v.1.15,2013-06-06 17:00:00,
2013-06-06 10:05:00,67.0,54.4,29.90,SSW,194,6.0,11.0,64,0.00,,,0.00,Wunderground v.1.15,2013-06-06 17:05:00,
2013-06-06 10:10:00,67.5,54.9,29.89,South,169,6.0,6.0,64,0.00,,,0.00,Wunderground v.1.15,2013-06-06 17:10:00,
2013-06-06 10:15:00,68.0,54.5,29.89,South,180,9.0,10.0,62,0.00,,,0.00,Wunderground v.1.15,2013-06-06 17:15:00,
2013-06-06 10:20:00,68.3,54.8,29.89,SSW,211,8.0,8.0,62,0.00,,,0.00,Wunderground v.1.15,2013-06-06 17:20:00,
2013-06-06 10:25:00,68.6,54.6,29.89,South,179,4.0,12.0,61,0.00,,,0.00,Wunderground v.1.15,2013-06-06 17:25:00,
2013-06-06 10:30:00,69.0,55.0,29.89,SW,219,4.0,6.0,61,0.00,,,0.00,Wunderground v.1.15,2013-06-06 17:30:00,
2013-06-06 10:35:00,69.4,54.9,29.89,WSW,237,3.0,9.0,60,0.00,,,0.00,Wunderground v.1.15,2013-06-06 17:35:00,
2013-06-06 10:40:00,69.4,54.9,29.89,SSW,192,5.0,6.0,60,0.00,,,0.00,Wunderground v.1.15,2013-06-06 17:40:00,
2013-06-06 10:45:00,69.9,55.4,29.89,South,176,4.0,10.0,60,0.00,,,0.00,Wunderground v.1.15,2013-06-06 17:45:00,
2013-06-06 10:50:00,70.1,55.1,29.89,South,176,9.0,10.0,59,0.00,,,0.00,Wunderground v.1.15,2013-06-06 17:50:00,
2013-06-06 10:55:00,70.2,54.7,29.89,South,185,6.0,13.0,58,0.00,,,0.00,Wunderground v.1.15,2013-06-06 17:55:00,
2013-06-06 11:00:00,70.3,54.8,29.89,SSW,206,8.0,10.0,58,0.00,,,0.00,Wunderground v.1.15,2013-06-06 18:00:00,
2013-06-06 11:05:00,70.5,55.5,29.89,South,190,4.0,11.0,59,0.00,,,0.00,Wunderground v.1.15,2013-06-06 18:05:00,
2013-06-06 11:10:00,70.8,55.3,29.89,SSW,193,4.0,7.0,58,0.00,,,0.00,Wunderground v.1.15,2013-06-06 18:10:00,
2013-06-06 11:15:00,70.9,55.4,29.89,South,190,6.0,11.0,58,0.00,,,0.00,Wunderground v.1.15,2013-06-06 18:15:00,
2013-06-06 11:20:00,71.2,55.2,29.89,SSW,197,8.0,8.0,57,0.00,,,0.00,Wunderground v.1.15,2013-06-06 18:20:00,
2013-06-06 11:25:00,71.5,55.5,29.89,SSE,168,4.0,12.0,57,0.00,,,0.00,Wunderground v.1.15,2013-06-06 18:25:00,
2013-06-06 11:30:00,72.0,55.4,29.89,South,172,5.0,7.0,56,0.00,,,0.00,Wunderground v.1.15,2013-06-06 18:30:00,
2013-06-06 11:35:00,72.3,55.7,29.89,SSW,205,9.0,12.0,56,0.00,,,0.00,Wunderground v.1.15,2013-06-06 18:35:00,
2013-06-06 11:40:00,72.5,55.4,29.89,South,169,7.0,13.0,55,0.00,,,0.00,Wunderground v.1.15,2013-06-06 18:40:00,
2013-06-06 11:44:00,72.7,55.6,29.89,South,173,10.0,13.0,55,0.00,,,0.00,Wunderground v.1.15,2013-06-06 18:44:00,
2013-06-06 11:49:00,73.1,56.0,29.89,SSE,161,5.0,14.0,55,0.00,,,0.00,Wunderground v.1.15,2013-06-06 18:49:00,
2013-06-06 11:55:00,73.7,56.0,29.88,SW,215,12.0,13.0,54,0.00,,,0.00,Wunderground v.1.15,2013-06-06 18:55:00,
2013-06-06 12:00:00,74.0,56.3,29.89,South,170,4.0,7.0,54,0.00,,,0.00,Wunderground v.1.15,2013-06-06 19:00:00,
2013-06-06 12:05:00,74.4,56.2,29.88,SW,231,7.0,13.0,53,0.00,,,0.00,Wunderground v.1.15,2013-06-06 19:05:00,
2013-06-06 12:10:00,74.4,56.2,29.88,South,171,12.0,12.0,53,0.00,,,0.00,Wunderground v.1.15,2013-06-06 19:10:00,
2013-06-06 12:15:00,74.4,56.7,29.88,SSW,205,8.0,13.0,54,0.00,,,0.00,Wunderground v.1.15,2013-06-06 19:15:00,
2013-06-06 12:20:00,74.7,56.4,29.88,SSW,206,10.0,10.0,53,0.00,,,0.00,Wunderground v.1.15,2013-06-06 19:20:00,
2013-06-06 12:25:00,74.8,56.5,29.87,SSW,198,3.0,12.0,53,0.00,,,0.00,Wunderground v.1.15,2013-06-06 19:25:00,
2013-06-06 12:30:00,75.5,56.6,29.87,South,178,4.0,7.0,52,0.00,,,0.00,Wunderground v.1.15,2013-06-06 19:30:00,
2013-06-06 12:34:00,75.8,56.9,29.87,South,186,9.0,9.0,52,0.00,,,0.00,Wunderground v.1.15,2013-06-06 19:34:00,
2013-06-06 12:39:00,76.3,57.4,29.87,SSW,202,5.0,14.0,52,0.00,,,0.00,Wunderground v.1.15,2013-06-06 19:39:00,
2013-06-06 12:44:00,76.8,57.3,29.87,South,178,10.0,13.0,51,0.00,,,0.00,Wunderground v.1.15,2013-06-06 19:44:00,
2013-06-06 12:49:00,77.6,58.0,29.87,SW,223,11.0,13.0,51,0.00,,,0.00,Wunderground v.1.15,2013-06-06 19:49:00,
2013-06-06 12:54:00,78.1,57.4,29.87,South,177,7.0,13.0,49,0.00,,,0.00,Wunderground v.1.15,2013-06-06 19:54:00,
2013-06-06 12:59:00,78.5,57.7,29.86,South,173,5.0,13.0,49,0.00,,,0.00,Wunderground v.1.15,2013-06-06 19:59:00,
2013-06-06 13:04:00,79.3,58.5,29.86,South,175,3.0,12.0,49,0.00,,,0.00,Wunderground v.1.15,2013-06-06 20:04:00,
2013-06-06 13:09:00,80.0,58.0,29.86,SSW,196,4.0,12.0,47,0.00,,,0.00,Wunderground v.1.15,2013-06-06 20:09:00,
2013-06-06 13:14:00,80.3,58.2,29.86,South,185,6.0,12.0,47,0.00,,,0.00,Wunderground v.1.15,2013-06-06 20:14:00,
2013-06-06 13:19:00,81.0,58.3,29.86,WSW,237,6.0,12.0,46,0.00,,,0.00,Wunderground v.1.15,2013-06-06 20:19:00,
2013-06-06 13:24:00,81.2,58.5,29.86,South,187,7.0,9.0,46,0.00,,,0.00,Wunderground v.1.15,2013-06-06 20:24:00,
2013-06-06 13:29:00,81.6,58.8,29.85,SSW,192,4.0,9.0,46,0.00,,,0.00,Wunderground v.1.15,2013-06-06 20:29:00,
2013-06-06 13:34:00,82.4,58.9,29.85,South,186,5.0,9.0,45,0.00,,,0.00,Wunderground v.1.15,2013-06-06 20:34:00,
2013-06-06 13:39:00,83.4,59.8,29.85,SSE,165,0.0,9.0,45,0.00,,,0.00,Wunderground v.1.15,2013-06-06 20:39:00,
2013-06-06 13:44:00,84.1,59.8,29.85,SSW,192,7.0,11.0,44,0.00,,,0.00,Wunderground v.1.15,2013-06-06 20:44:00,
2013-06-06 13:49:00,84.7,59.7,29.85,South,182,5.0,11.0,43,0.00,,,0.00,Wunderground v.1.15,2013-06-06 20:49:00,
2013-06-06 13:54:00,86.0,60.2,29.84,SSW,192,7.0,9.0,42,0.00,,,0.00,Wunderground v.1.15,2013-06-06 20:54:00,
2013-06-06 13:59:00,85.8,60.1,29.84,SSW,205,4.0,9.0,42,0.00,,,0.00,Wunderground v.1.15,2013-06-06 20:59:00,
2013-06-06 14:04:00,86.5,60.0,29.84,SSE,161,4.0,10.0,41,0.00,,,0.00,Wunderground v.1.15,2013-06-06 21:04:00,
2013-06-06 14:09:00,86.4,59.9,29.84,SSW,198,5.0,12.0,41,0.00,,,0.00,Wunderground v.1.15,2013-06-06 21:09:00,
2013-06-06 14:14:00,86.3,59.8,29.83,SSW,197,7.0,9.0,41,0.00,,,0.00,Wunderground v.1.15,2013-06-06 21:14:00,
2013-06-06 14:19:00,86.4,59.9,29.83,South,185,8.0,11.0,41,0.00,,,0.00,Wunderground v.1.15,2013-06-06 21:19:00,
2013-06-06 14:24:00,86.7,59.5,29.83,South,173,5.0,11.0,40,0.00,,,0.00,Wunderground v.1.15,2013-06-06 21:24:00,
2013-06-06 14:29:00,86.9,60.4,29.83,South,190,3.0,12.0,41,0.00,,,0.00,Wunderground v.1.15,2013-06-06 21:29:00,
2013-06-06 14:34:00,87.0,59.8,29.83,SSW,196,7.0,12.0,40,0.00,,,0.00,Wunderground v.1.15,2013-06-06 21:34:00,
2013-06-06 14:39:00,86.9,59.7,29.83,SSW,196,6.0,14.0,40,0.00,,,0.00,Wunderground v.1.15,2013-06-06 21:39:00,
2013-06-06 14:44:00,86.8,59.6,29.82,SSE,165,4.0,17.0,40,0.00,,,0.00,Wunderground v.1.15,2013-06-06 21:44:00,
2013-06-06 14:49:00,86.8,60.3,29.82,SW,229,7.0,17.0,41,0.00,,,0.00,Wunderground v.1.15,2013-06-06 21:49:00,
2013-06-06 14:54:00,86.8,59.6,29.82,SSW,212,8.0,12.0,40,0.00,,,0.00,Wunderground v.1.15,2013-06-06 21:54:00,
2013-06-06 14:59:00,87.1,59.8,29.81,South,183,7.0,12.0,40,0.00,,,0.00,Wunderground v.1.15,2013-06-06 21:59:00,
2013-06-06 15:04:00,87.3,60.0,29.81,South,180,6.0,11.0,40,0.00,,,0.00,Wunderground v.1.15,2013-06-06 22:04:00,
2013-06-06 15:09:00,87.5,60.2,29.81,SSW,211,5.0,13.0,40,0.00,,,0.00,Wunderground v.1.15,2013-06-06 22:09:00,
2013-06-06 15:14:00,88.1,60.0,29.81,SSW,207,8.0,15.0,39,0.00,,,0.00,Wunderground v.1.15,2013-06-06 22:14:00,
2013-06-06 15:19:00,87.8,59.8,29.81,SW,234,5.0,15.0,39,0.00,,,0.00,Wunderground v.1.15,2013-06-06 22:19:00,
2013-06-06 15:24:00,87.6,59.6,29.80,South,187,4.0,11.0,39,0.00,,,0.00,Wunderground v.1.15,2013-06-06 22:24:00,
2013-06-06 15:29:00,88.0,59.9,29.80,SSE,163,10.0,14.0,39,0.00,,,0.00,Wunderground v.1.15,2013-06-06 22:29:00,
2013-06-06 15:34:00,88.0,60.7,29.79,SSW,193,5.0,14.0,40,0.00,,,0.00,Wunderground v.1.15,2013-06-06 22:34:00,
2013-06-06 15:39:00,88.6,59.7,29.79,SSW,192,12.0,14.0,38,0.00,,,0.00,Wunderground v.1.15,2013-06-06 22:39:00,
2013-06-06 15:44:00,88.0,59.9,29.79,SSW,205,6.0,14.0,39,0.00,,,0.00,Wunderground v.1.15,2013-06-06 22:44:00,
2013-06-06 15:49:00,88.0,59.9,29.79,South,175,7.0,14.0,39,0.00,,,0.00,Wunderground v.1.15,2013-06-06 22:49:00,
2013-06-06 15:54:00,88.3,60.2,29.79,SW,219,6.0,16.0,39,0.00,,,0.00,Wunderground v.1.15,2013-06-06 22:54:00,
2013-06-06 15:59:00,88.3,60.2,29.79,SSW,194,12.0,16.0,39,0.00,,,0.00,Wunderground v.1.15,2013-06-06 22:59:00,
2013-06-06 16:04:00,88.4,60.3,29.78,South,191,10.0,13.0,39,0.00,,,0.00,Wunderground v.1.15,2013-06-06 23:04:00,
2013-06-06 16:09:00,88.0,59.9,29.78,SSW,194,9.0,13.0,39,0.00,,,0.00,Wunderground v.1.15,2013-06-06 23:09:00,
2013-06-06 16:14:00,87.6,60.3,29.78,South,182,7.0,13.0,40,0.00,,,0.00,Wunderground v.1.15,2013-06-06 23:14:00,
2013-06-06 16:19:00,87.9,60.6,29.78,SSW,202,7.0,17.0,40,0.00,,,0.00,Wunderground v.1.15,2013-06-06 23:19:00,
2013-06-06 16:24:00,87.6,60.3,29.78,SSW,202,7.0,15.0,40,0.00,,,0.00,Wunderground v.1.15,2013-06-06 23:24:00,
2013-06-06 16:29:00,87.3,60.0,29.77,South,187,9.0,15.0,40,0.00,,,0.00,Wunderground v.1.15,2013-06-06 23:29:00,
2013-06-06 16:34:00,87.5,60.9,29.77,SSE,166,5.0,13.0,41,0.00,,,0.00,Wunderground v.1.15,2013-06-06 23:34:00,
2013-06-06 16:39:00,87.5,60.2,29.77,South,188,8.0,17.0,40,0.00,,,0.00,Wunderground v.1.15,2013-06-06 23:39:00,
2013-06-06 16:44:00,87.0,60.5,29.77,SSW,197,7.0,14.0,41,0.00,,,0.00,Wunderground v.1.15,2013-06-06 23:44:00,
2013-06-06 16:49:00,87.0,60.5,29.77,SSW,196,4.0,15.0,41,0.00,,,0.00,Wunderground v.1.15,2013-06-06 23:49:00,
2013-06-06 16:54:00,87.0,60.5,29.77,SSW,201,7.0,14.0,41,0.00,,,0.00,Wunderground v.1.15,2013-06-06 23:54:00,
2013-06-06 16:59:00,87.6,61.0,29.76,SSW,205,4.0,14.0,41,0.00,,,0.00,Wunderground v.1.15,2013-06-06 23:59:00,
2013-06-06 17:04:00,87.7,60.4,29.76,SSW,209,5.0,13.0,40,0.00,,,0.00,Wunderground v.1.15,2013-06-07 00:04:00,
2013-06-06 17:09:00,87.5,60.2,29.76,SSW,209,5.0,13.0,40,0.00,,,0.00,Wunderground v.1.15,2013-06-07 00:09:00,
2013-06-06 17:14:00,87.4,60.1,29.76,SSW,204,7.0,15.0,40,0.00,,,0.00,Wunderground v.1.15,2013-06-07 00:14:00,
2013-06-06 17:19:00,87.4,60.8,29.76,SSW,205,10.0,15.0,41,0.00,,,0.00,Wunderground v.1.15,2013-06-07 00:19:00,
2013-06-06 17:24:00,87.5,60.2,29.75,SSW,192,16.0,17.0,40,0.00,,,0.00,Wunderground v.1.15,2013-06-07 00:24:00,
2013-06-06 17:29:00,87.3,60.0,29.75,South,172,10.0,17.0,40,0.00,,,0.00,Wunderground v.1.15,2013-06-07 00:29:00,
2013-06-06 17:34:00,87.4,60.1,29.75,South,185,12.0,13.0,40,0.00,,,0.00,Wunderground v.1.15,2013-06-07 00:34:00,
2013-06-06 17:39:00,87.6,61.0,29.75,SSW,192,7.0,13.0,41,0.00,,,0.00,Wunderground v.1.15,2013-06-07 00:39:00,
2013-06-06 17:44:00,88.1,60.7,29.75,SSW,201,3.0,10.0,40,0.00,,,0.00,Wunderground v.1.15,2013-06-07 00:44:00,
2013-06-06 17:49:00,88.0,60.7,29.75,South,174,5.0,11.0,40,0.00,,,0.00,Wunderground v.1.15,2013-06-07 00:49:00,
2013-06-06 17:54:00,87.6,60.3,29.75,South,191,4.0,10.0,40,0.00,,,0.00,Wunderground v.1.15,2013-06-07 00:54:00,
2013-06-06 17:59:00,87.1,59.8,29.75,SSW,200,7.0,15.0,40,0.00,,,0.00,Wunderground v.1.15,2013-06-07 00:59:00,
2013-06-06 18:04:00,86.5,59.3,29.75,SSW,208,5.0,13.0,40,0.00,,,0.00,Wunderground v.1.15,2013-06-07 01:04:00,
2013-06-06 18:09:00,85.7,59.3,29.75,South,184,6.0,16.0,41,0.00,,,0.00,Wunderground v.1.15,2013-06-07 01:09:00,
2013-06-06 18:14:00,84.9,59.2,29.75,South,182,7.0,15.0,42,0.00,,,0.00,Wunderground v.1.15,2013-06-07 01:14:00,
2013-06-06 18:19:00,84.0,58.4,29.75,SW,215,9.0,15.0,42,0.00,,,0.00,Wunderground v.1.15,2013-06-07 01:19:00,
2013-06-06 18:23:00,83.2,58.4,29.75,SSE,165,5.0,12.0,43,0.00,,,0.00,Wunderground v.1.15,2013-06-07 01:23:00,
2013-06-06 18:28:00,82.8,58.7,29.75,South,177,4.0,13.0,44,0.00,,,0.00,Wunderground v.1.15,2013-06-07 01:28:00,
2013-06-06 18:33:00,82.7,58.6,29.75,SSW,205,7.0,14.0,44,0.00,,,0.00,Wunderground v.1.15,2013-06-07 01:33:00,
2013-06-06 18:38:00,82.8,58.7,29.75,SSW,201,4.0,14.0,44,0.00,,,0.00,Wunderground v.1.15,2013-06-07 01:38:00,
2013-06-06 18:43:00,82.7,58.6,29.75,South,189,6.0,10.0,44,0.00,,,0.00,Wunderground v.1.15,2013-06-07 01:43:00,
2013-06-06 18:48:00,82.7,58.6,29.75,South,175,4.0,10.0,44,0.00,,,0.00,Wunderground v.1.15,2013-06-07 01:48:00,
2013-06-06 18:53:00,82.4,58.3,29.75,South,171,8.0,10.0,44,0.00,,,0.00,Wunderground v.1.15,2013-06-07 01:53:00,
2013-06-06 18:58:00,81.9,57.8,29.75,SSW,205,7.0,13.0,44,0.00,,,0.00,Wunderground v.1.15,2013-06-07 01:58:00,
2013-06-06 19:03:00,81.2,57.8,29.75,SW,221,10.0,13.0,45,0.00,,,0.00,Wunderground v.1.15,2013-06-07 02:03:00,
2013-06-06 19:08:00,80.4,57.1,29.75,SW,229,12.0,14.0,45,0.00,,,0.00,Wunderground v.1.15,2013-06-07 02:08:00,
2013-06-06 19:13:00,79.6,57.0,29.75,SSW,206,7.0,11.0,46,0.00,,,0.00,Wunderground v.1.15,2013-06-07 02:13:00,
2013-06-06 19:18:00,78.9,57.0,29.75,SW,217,5.0,14.0,47,0.00,,,0.00,Wunderground v.1.15,2013-06-07 02:18:00,
2013-06-06 19:23:00,78.2,56.9,29.75,SSW,205,7.0,12.0,48,0.00,,,0.00,Wunderground v.1.15,2013-06-07 02:23:00,
2013-06-06 19:28:00,77.6,56.9,29.75,SSW,213,6.0,12.0,49,0.00,,,0.00,Wunderground v.1.15,2013-06-07 02:28:00,
2013-06-06 19:33:00,77.1,56.5,29.75,SSE,167,9.0,12.0,49,0.00,,,0.00,Wunderground v.1.15,2013-06-07 02:33:00,
2013-06-06 19:38:00,76.5,56.5,29.75,SSE,167,5.0,12.0,50,0.00,,,0.00,Wunderground v.1.15,2013-06-07 02:38:00,
2013-06-06 19:43:00,75.8,56.4,29.75,SSW,199,5.0,11.0,51,0.00,,,0.00,Wunderground v.1.15,2013-06-07 02:43:00,
2013-06-06 19:48:00,75.1,55.7,29.75,SSW,198,4.0,12.0,51,0.00,,,0.00,Wunderground v.1.15,2013-06-07 02:48:00,
2013-06-06 19:53:00,74.5,56.2,29.75,SSW,194,8.0,12.0,53,0.00,,,0.00,Wunderground v.1.15,2013-06-07 02:53:00,
2013-06-06 19:58:00,73.8,55.6,29.75,SSW,194,3.0,12.0,53,0.00,,,0.00,Wunderground v.1.15,2013-06-07 02:58:00,
2013-06-06 20:03:00,73.3,55.6,29.75,SSW,205,8.0,16.0,54,0.00,,,0.00,Wunderground v.1.15,2013-06-07 03:03:00,
2013-06-06 20:08:00,72.7,55.6,29.75,South,184,3.0,16.0,55,0.00,,,0.00,Wunderground v.1.15,2013-06-07 03:08:00,
2013-06-06 20:13:00,72.3,55.7,29.76,SSW,206,3.0,11.0,56,0.00,,,0.00,Wunderground v.1.15,2013-06-07 03:13:00,
2013-06-06 20:18:00,71.9,55.8,29.76,SW,221,5.0,11.0,57,0.00,,,0.00,Wunderground v.1.15,2013-06-07 03:18:00,
2013-06-06 20:23:00,71.5,55.5,29.76,SSW,201,7.0,9.0,57,0.00,,,0.00,Wunderground v.1.15,2013-06-07 03:23:00,
2013-06-06 20:28:00,71.1,55.6,29.76,SSW,200,7.0,9.0,58,0.00,,,0.00,Wunderground v.1.15,2013-06-07 03:28:00,
2013-06-06 20:33:00,70.7,55.2,29.76,SSW,211,6.0,8.0,58,0.00,,,0.00,Wunderground v.1.15,2013-06-07 03:33:00,
2013-06-06 20:38:00,70.3,55.3,29.76,SSW,196,5.0,8.0,59,0.00,,,0.00,Wunderground v.1.15,2013-06-07 03:38:00,
2013-06-06 20:43:00,69.9,55.4,29.76,SSW,207,4.0,7.0,60,0.00,,,0.00,Wunderground v.1.15,2013-06-07 03:43:00,
2013-06-06 20:48:00,69.5,55.0,29.76,South,184,4.0,10.0,60,0.00,,,0.00,Wunderground v.1.15,2013-06-07 03:48:00,
2013-06-06 20:53:00,69.1,55.1,29.76,SSW,192,8.0,12.0,61,0.00,,,0.00,Wunderground v.1.15,2013-06-07 03:53:00,
2013-06-06 20:58:00,68.6,54.6,29.76,SSW,201,7.0,12.0,61,0.00,,,0.00,Wunderground v.1.15,2013-06-07 03:58:00,
2013-06-06 21:01:00,68.3,54.8,29.76,South,177,8.0,9.0,62,0.00,,,0.00,Wunderground v.1.15,2013-06-07 04:01:00,
2013-06-06 21:02:00,68.2,54.7,29.76,SSW,213,7.0,9.0,62,0.00,,,0.00,Wunderground v.1.15,2013-06-07 04:02:00,
2013-06-06 21:07:00,67.7,54.6,29.77,SSW,200,4.0,11.0,63,0.00,,,0.00,Wunderground v.1.15,2013-06-07 04:07:00,
2013-06-06 21:12:00,66.9,54.3,29.77,SSW,197,8.0,10.0,64,0.00,,,0.00,Wunderground v.1.15,2013-06-07 04:12:00,
2013-06-06 21:17:00,66.3,54.2,29.77,SSW,200,6.0,16.0,65,0.00,,,0.00,Wunderground v.1.15,2013-06-07 04:17:00,
2013-06-06 21:22:00,65.8,54.5,29.77,SW,224,11.0,11.0,67,0.00,,,0.00,Wunderground v.1.15,2013-06-07 04:22:00,
2013-06-06 21:27:00,65.4,54.2,29.77,SSW,206,6.0,11.0,67,0.00,,,0.00,Wunderground v.1.15,2013-06-07 04:27:00,
2013-06-06 21:32:00,65.2,54.4,29.77,South,190,8.0,9.0,68,0.00,,,0.00,Wunderground v.1.15,2013-06-07 04:32:00,
2013-06-06 21:37:00,64.9,54.1,29.77,SSW,213,9.0,11.0,68,0.00,,,0.00,Wunderground v.1.15,2013-06-07 04:37:00,
2013-06-06 21:42:00,64.7,54.3,29.77,SSW,210,4.0,10.0,69,0.00,,,0.00,Wunderground v.1.15,2013-06-07 04:42:00,
2013-06-06 21:47:00,64.5,54.1,29.78,SW,217,10.0,10.0,69,0.00,,,0.00,Wunderground v.1.15,2013-06-07 04:47:00,
2013-06-06 21:52:00,64.2,53.8,29.78,SW,218,5.0,10.0,69,0.00,,,0.00,Wunderground v.1.15,2013-06-07 04:52:00,
2013-06-06 21:57:00,63.9,53.9,29.78,SSW,205,7.0,11.0,70,0.00,,,0.00,Wunderground v.1.15,2013-06-07 04:57:00,
2013-06-06 22:02:00,63.6,54.0,29.78,South,186,7.0,9.0,71,0.00,,,0.00,Wunderground v.1.15,2013-06-07 05:02:00,
2013-06-06 22:07:00,63.4,53.8,29.78,SSW,205,6.0,13.0,71,0.00,,,0.00,Wunderground v.1.15,2013-06-07 05:07:00,
2013-06-06 22:12:00,63.2,54.0,29.78,South,171,1.0,11.0,72,0.00,,,0.00,Wunderground v.1.15,2013-06-07 05:12:00,
2013-06-06 22:17:00,63.1,53.9,29.78,SSW,211,4.0,11.0,72,0.00,,,0.00,Wunderground v.1.15,2013-06-07 05:17:00,
2013-06-06 22:22:00,63.0,53.8,29.79,South,182,2.0,7.0,72,0.00,,,0.00,Wunderground v.1.15,2013-06-07 05:22:00,
2013-06-06 22:27:00,62.8,53.6,29.79,South,190,7.0,9.0,72,0.00,,,0.00,Wunderground v.1.15,2013-06-07 05:27:00,
2013-06-06 22:32:00,62.6,53.4,29.79,SSW,207,7.0,11.0,72,0.00,,,0.00,Wunderground v.1.15,2013-06-07 05:32:00,
2013-06-06 22:37:00,62.5,53.3,29.79,South,189,5.0,11.0,72,0.00,,,0.00,Wunderground v.1.15,2013-06-07 05:37:00,
2013-06-06 22:42:00,62.4,53.3,29.79,SSW,194,6.0,8.0,72,0.00,,,0.00,Wunderground v.1.15,2013-06-07 05:42:00,
2013-06-06 22:47:00,62.4,53.3,29.79,South,188,6.0,8.0,72,0.00,,,0.00,Wunderground v.1.15,2013-06-07 05:47:00,
2013-06-06 22:52:00,62.4,53.3,29.79,SSW,196,3.0,5.0,72,0.00,,,0.00,Wunderground v.1.15,2013-06-07 05:52:00,
2013-06-06 22:57:00,62.5,53.3,29.79,South,180,2.0,7.0,72,0.00,,,0.00,Wunderground v.1.15,2013-06-07 05:57:00,
2013-06-06 23:02:00,62.5,53.3,29.79,South,190,4.0,7.0,72,0.00,,,0.00,Wunderground v.1.15,2013-06-07 06:02:00,
2013-06-06 23:07:00,62.5,53.3,29.79,South,186,4.0,7.0,72,0.00,,,0.00,Wunderground v.1.15,2013-06-07 06:07:00,
2013-06-06 23:12:00,62.5,53.3,29.79,South,180,3.0,7.0,72,0.00,,,0.00,Wunderground v.1.15,2013-06-07 06:12:00,
2013-06-06 23:17:00,62.5,53.3,29.79,SSW,211,7.0,7.0,72,0.00,,,0.00,Wunderground v.1.15,2013-06-07 06:17:00,
2013-06-06 23:22:00,62.3,53.2,29.79,South,180,3.0,7.0,72,0.00,,,0.00,Wunderground v.1.15,2013-06-07 06:22:00,
2013-06-06 23:27:00,62.2,53.4,29.79,SSW,201,5.0,9.0,73,0.00,,,0.00,Wunderground v.1.15,2013-06-07 06:27:00,
2013-06-06 23:32:00,62.0,53.2,29.79,SSW,193,3.0,9.0,73,0.00,,,0.00,Wunderground v.1.15,2013-06-07 06:32:00,
2013-06-06 23:37:00,61.8,53.1,29.79,SW,225,7.0,9.0,73,0.00,,,0.00,Wunderground v.1.15,2013-06-07 06:37:00,
2013-06-06 23:42:00,61.7,53.0,29.79,SSW,192,2.0,7.0,73,0.00,,,0.00,Wunderground v.1.15,2013-06-07 06:42:00,
2013-06-06 23:47:00,61.6,53.2,29.79,SSW,200,5.0,8.0,74,0.00,,,0.00,Wunderground v.1.15,2013-06-07 06:47:00,
2013-06-06 23:52:00,61.5,53.1,29.79,SSW,196,7.0,7.0,74,0.00,,,0.00,Wunderground v.1.15,2013-06-07 06:52:00,
2013-06-06 23:57:00,61.4,53.0,29.79,SSW,212,5.0,8.0,74,0.00,,,0.00,Wunderground v.1.15,2013-06-07 06:57:00,